SL-8 DEB, 13517

Orbit data source: Space-Track

SL-8 DEB, 13517 is space debris in LEO originally from a launch on Mon, 15 Mar 1965 UTC launched from the Tyuratam Missile And Space Complex (TTMTR). Debris objects in space refer to the collection of defunct objects orbiting the Earth. Examples of debris include non-operational satellites, rocket bodies, and fragments generated from explosions, collisions, or faulty payload assembly.

Loading next visibility...
Identifier
13517, 1965-020FF
Orbit
LEO
Country
Flag of CISCIS
Related business
Manufacturer
Unknown
Mission
Spacecraft
Bus & Motor
Unknown
Mass
Unknown
Launch date (UTC)
1965-03-15 (61 years ago)
Launch vehicle
Unknown
Launch site
Tyuratam Missile And Space Complex (TTMTR)
Object type
Payload
Rocket body
Debris
Shape & HBR
Unknown shape, 0.1 m
Radar Cross Section
Small (<0.1 m²)

Expand to show TLE details & history
Last TLE update: 17 hours ago

TLE from 17 hours ago
0 SL-8 DEB
1 13517U 65020FF  25286.70506378  .00000730  00000-0  64518-3 0  9996
2 13517  55.5688  35.9548 0529673  70.5169  67.2668 13.43213989102944
Epoch: 2025-10-13T16:55Z
TLE epoch observation values (Epoch: 2025-10-13T16:55:17.510Z)
Latitude
29.44707°
Longitude
-83.01516°
Altitude
964.521 km
Speed
7.439 km/s
True Right ascension
12h 53m 14s
True Declination
29° 18' 15"
Sunlit
Object was in daylight at epoch
Visualization orbit readout
Latitude
Unknown
Longitude
Unknown
Altitude
Unknown
Speed
Unknown
Apparent Right ascension
Unknown
Apparent Declination
Unknown
Sunlit
N/A
Visualization observer readout
Local Sidereal Time
04:40:18
Azimuth
Unknown
Elevation
Unknown
Doppler factor
Unknown
Orbital elements
Apogee altitude
1,493.163 km
Perigee altitude
701.265 km
Semi-major axis
7,475.351 km
Eccentricity
0.05297
Inclination
55.5688°
RAAN
35.9548°
Arg. of periapsis
70.5169°
True anomaly
73.00209°
Mean anomaly
67.2668°
Eccentric anomaly
70.12076°
Mean motion
3.35812 °/min
Orbital period
107.2 mins
BSTAR
0.00064518
Loading maneuver chart data...
Computing Atmospheric mass density...

Documentation

Showing up to 5 results
|